When you browse on this site, cookies collect data to enhance your experience and personalize the content and advertising you see.
Visit our Privacy Policy to learn more. By continuing to use the site, you agree to this use of cookies and data.
EN

Hourly Weather Cochabamba

Today, 9 July, Thursday

Time Temperature Precipitation Wind Pressure Humidity
00:00 +9°C° 0 mm 1 mps 552 mmHg 22%
01:00 +8°C° 0 mm 1 mps 552 mmHg 24%
02:00 +8°C° 0 mm 1 mps 551 mmHg 27%
03:00 +7°C° 0 mm 1 mps 551 mmHg 28%
04:00 +7°C° 0 mm 1 mps 551 mmHg 29%
05:00 +5°C° 0 mm 0 mps 550 mmHg 30%
06:00 +7°C° 0 mm 0 mps 552 mmHg 28%
07:00 +9°C° 0 mm 0 mps 553 mmHg 27%
08:00 +10°C° 0 mm 0 mps 555 mmHg 25%
09:00 +13°C° 0 mm 0 mps 556 mmHg 21%
10:00 +16°C° 0 mm 1 mps 557 mmHg 17%
11:00 +19°C° 0 mm 1 mps 559 mmHg 12%
12:00 +20°C° 0 mm 1 mps 558 mmHg 13%
13:00 +21°C° 0 mm 1 mps 558 mmHg 14%
14:00 +22°C° 0 mm 1 mps 558 mmHg 15%
15:00 +21°C° 0 mm 1 mps 557 mmHg 22%
16:00 +20°C° 0 mm 1 mps 557 mmHg 28%
17:00 +20°C° 0 mm 1 mps 556 mmHg 34%
18:00 +17°C° 0 mm 2 mps 556 mmHg 41%
19:00 +15°C° 0 mm 2 mps 555 mmHg 49%
20:00 +13°C° 0 mm 2 mps 554 mmHg 56%
21:00 +12°C° 0 mm 1 mps 554 mmHg 56%
22:00 +12°C° 0 mm 1 mps 554 mmHg 56%
23:00 +12°C° 0 mm 1 mps 554 mmHg 57%

Tomorrow, 10 July, Friday

Time Temperature Precipitation Wind Pressure Humidity
00:00 +11°C° 0 mm 1 mps 554 mmHg 57%
01:00 +11°C° 0 mm 1 mps 553 mmHg 56%
02:00 +10°C° 0 mm 1 mps 553 mmHg 56%
03:00 +10°C° 0 mm 1 mps 553 mmHg 56%
04:00 +10°C° 0 mm 1 mps 552 mmHg 55%
05:00 +10°C° 0 mm 1 mps 552 mmHg 55%
06:00 +11°C° 0 mm 1 mps 553 mmHg 52%
07:00 +12°C° 0 mm 1 mps 554 mmHg 48%
08:00 +13°C° 0 mm 1 mps 555 mmHg 45%
09:00 +15°C° 0 mm 1 mps 556 mmHg 39%
10:00 +18°C° 0 mm 1 mps 557 mmHg 33%
11:00 +19°C° 0 mm 2 mps 558 mmHg 27%
12:00 +20°C° 0 mm 2 mps 557 mmHg 26%
13:00 +21°C° 0 mm 2 mps 557 mmHg 25%
14:00 +21°C° 0 mm 3 mps 557 mmHg 24%
15:00 +21°C° 0 mm 3 mps 556 mmHg 28%
16:00 +20°C° 0 mm 3 mps 556 mmHg 32%
17:00 +20°C° 0 mm 3 mps 555 mmHg 37%
18:00 +18°C° 0 mm 2 mps 554 mmHg 43%
19:00 +16°C° 0 mm 2 mps 554 mmHg 50%
20:00 +14°C° 0 mm 2 mps 553 mmHg 57%
21:00 +13°C° 0 mm 1 mps 553 mmHg 56%
22:00 +12°C° 0 mm 1 mps 553 mmHg 56%
23:00 +12°C° 0 mm 1 mps 553 mmHg 56%

Day after tomorrow, 11 July, Saturday

Time Temperature Precipitation Wind Pressure Humidity
00:00 +11°C° 0 mm 1 mps 553 mmHg 55%
01:00 +10°C° 0 mm 0 mps 552 mmHg 54%
02:00 +9°C° 0 mm 0 mps 552 mmHg 54%
03:00 +9°C° 0 mm 0 mps 552 mmHg 53%
04:00 +8°C° 0 mm 0 mps 551 mmHg 52%
05:00 +8°C° 0 mm 0 mps 551 mmHg 51%
06:00 +9°C° 0 mm 0 mps 552 mmHg 48%
07:00 +11°C° 0 mm 0 mps 553 mmHg 44%
08:00 +12°C° 0 mm 0 mps 555 mmHg 41%
09:00 +15°C° 0 mm 1 mps 556 mmHg 36%
10:00 +19°C° 0 mm 1 mps 557 mmHg 31%
11:00 +21°C° 0 mm 1 mps 558 mmHg 26%
12:00 +21°C° 0 mm 1 mps 558 mmHg 27%
13:00 +22°C° 0 mm 1 mps 557 mmHg 29%
14:00 +23°C° 0 mm 1 mps 557 mmHg 31%
15:00 +21°C° 0.1 mm 2 mps 556 mmHg 36%
16:00 +21°C° 0.1 mm 2 mps 556 mmHg 40%
17:00 +20°C° 0.1 mm 3 mps 555 mmHg 45%
18:00 +18°C° 0 mm 2 mps 555 mmHg 53%
19:00 +16°C° 0 mm 2 mps 554 mmHg 62%
20:00 +14°C° 0 mm 2 mps 553 mmHg 70%
21:00 +14°C° 0 mm 1 mps 553 mmHg 68%
22:00 +13°C° 0 mm 1 mps 553 mmHg 66%
23:00 +12°C° 0 mm 1 mps 553 mmHg 65%

12 July, Sunday

Time Temperature Precipitation Wind Pressure Humidity
00:00 +12°C° 0 mm 1 mps 553 mmHg 63%
01:00 +11°C° 0 mm 1 mps 552 mmHg 61%
02:00 +11°C° 0 mm 1 mps 552 mmHg 59%
03:00 +11°C° 0 mm 1 mps 551 mmHg 57%
04:00 +10°C° 0 mm 1 mps 551 mmHg 56%
05:00 +10°C° 0 mm 1 mps 551 mmHg 54%
06:00 +11°C° 0 mm 1 mps 552 mmHg 49%
07:00 +13°C° 0 mm 1 mps 553 mmHg 44%
08:00 +14°C° 0 mm 1 mps 555 mmHg 39%
09:00 +16°C° 0 mm 1 mps 556 mmHg 34%
10:00 +19°C° 0 mm 1 mps 557 mmHg 28%
11:00 +22°C° 0 mm 1 mps 558 mmHg 22%
12:00 +23°C° 0 mm 1 mps 558 mmHg 22%
13:00 +24°C° 0 mm 1 mps 557 mmHg 22%
14:00 +24°C° 0 mm 2 mps 557 mmHg 22%
15:00 +24°C° 0 mm 2 mps 557 mmHg 26%
16:00 +23°C° 0 mm 2 mps 556 mmHg 30%
17:00 +23°C° 0 mm 2 mps 556 mmHg 34%
18:00 +19°C° 0 mm 2 mps 555 mmHg 45%
19:00 +17°C° 0 mm 2 mps 554 mmHg 55%
20:00 +15°C° 0 mm 2 mps 553 mmHg 65%
21:00 +14°C° 0 mm 2 mps 553 mmHg 65%
22:00 +13°C° 0 mm 1 mps 553 mmHg 65%
23:00 +12°C° 0 mm 1 mps 552 mmHg 66%

13 July, Monday

Time Temperature Precipitation Wind Pressure Humidity
00:00 +12°C° 0 mm 1 mps 552 mmHg 64%
01:00 +11°C° 0 mm 1 mps 552 mmHg 62%
02:00 +10°C° 0 mm 0 mps 551 mmHg 60%
03:00 +9°C° 0 mm 0 mps 551 mmHg 58%
04:00 +9°C° 0 mm 0 mps 551 mmHg 57%
05:00 +8°C° 0 mm 0 mps 551 mmHg 55%
06:00 +10°C° 0 mm 0 mps 552 mmHg 51%
07:00 +11°C° 0 mm 0 mps 553 mmHg 47%
08:00 +13°C° 0 mm 0 mps 555 mmHg 42%
09:00 +15°C° 0 mm 0 mps 556 mmHg 36%
10:00 +19°C° 0 mm 1 mps 557 mmHg 29%
11:00 +22°C° 0 mm 1 mps 558 mmHg 23%
12:00 +22°C° 0 mm 1 mps 558 mmHg 21%
13:00 +23°C° 0 mm 1 mps 558 mmHg 20%
14:00 +24°C° 0 mm 2 mps 558 mmHg 18%
15:00 +24°C° 0 mm 2 mps 557 mmHg 23%
16:00 +23°C° 0 mm 2 mps 557 mmHg 28%
17:00 +21°C° 0 mm 2 mps 556 mmHg 33%
18:00 +19°C° 0 mm 2 mps 555 mmHg 45%
19:00 +16°C° 0 mm 2 mps 555 mmHg 57%
20:00 +13°C° 0 mm 3 mps 554 mmHg 69%
21:00 +13°C° 0 mm 2 mps 554 mmHg 72%
22:00 +13°C° 0 mm 1 mps 554 mmHg 76%
23:00 +12°C° 0 mm 1 mps 554 mmHg 79%

14 July, Tuesday

Time Temperature Precipitation Wind Pressure Humidity
00:00 +12°C° 0 mm 1 mps 554 mmHg 80%
01:00 +11°C° 0 mm 1 mps 553 mmHg 80%
02:00 +10°C° 0 mm 0 mps 553 mmHg 81%
03:00 +9°C° 0 mm 0 mps 553 mmHg 82%
04:00 +9°C° 0 mm 0 mps 552 mmHg 83%
05:00 +8°C° 0 mm 0 mps 552 mmHg 84%
06:00 +9°C° 0 mm 0 mps 553 mmHg 78%
07:00 +11°C° 0 mm 0 mps 555 mmHg 73%
08:00 +12°C° 0 mm 0 mps 556 mmHg 67%
09:00 +15°C° 0 mm 1 mps 557 mmHg 61%
10:00 +16°C° 0 mm 1 mps 557 mmHg 56%
11:00 +19°C° 0 mm 1 mps 558 mmHg 50%
12:00 +20°C° 0.1 mm 1 mps 558 mmHg 48%
13:00 +21°C° 0.1 mm 1 mps 558 mmHg 46%
14:00 +21°C° 0.1 mm 2 mps 557 mmHg 45%
15:00 +20°C° 0 mm 2 mps 557 mmHg 46%
16:00 +20°C° 0 mm 3 mps 556 mmHg 48%
17:00 +19°C° 0 mm 3 mps 556 mmHg 50%
18:00 +18°C° 0 mm 3 mps 555 mmHg 59%
19:00 +16°C° 0 mm 3 mps 555 mmHg 68%
20:00 +14°C° 0 mm 2 mps 554 mmHg 77%
21:00 +14°C° 0 mm 2 mps 554 mmHg 78%
22:00 +13°C° 0 mm 2 mps 554 mmHg 80%
23:00 +12°C° 0 mm 1 mps 554 mmHg 81%
Show more